TimeEST,TemperatureF,Dew PointF,Humidity,Sea Level PressureIn,VisibilityMPH,Wind Direction,Wind SpeedMPH,Gust SpeedMPH,PrecipitationIn,Events,Conditions,WindDirDegrees,DateUTC
12:16 AM,30.9,29.3,94,29.37,5.0,North,10.4,-,N/A,,Overcast,360,2013-02-19 05:16:00
12:37 AM,30.9,29.3,94,29.37,2.5,North,10.4,-,N/A,Snow,Light Snow,360,2013-02-19 05:37:00
12:57 AM,30.2,28.8,94,29.36,1.2,North,11.5,-,N/A,Snow,Light Snow,350,2013-02-19 05:57:00
1:16 AM,30.2,28.4,93,29.35,1.2,NNW,11.5,-,N/A,Snow,Light Snow,340,2013-02-19 06:16:00
1:37 AM,29.3,28.0,95,29.35,1.2,NNW,10.4,-,N/A,Snow,Light Snow,340,2013-02-19 06:37:00
1:57 AM,30.2,28.4,93,29.34,1.8,North,11.5,-,N/A,Snow,Light Snow,350,2013-02-19 06:57:00
2:17 AM,29.1,27.3,93,29.34,1.5,NNW,13.8,-,N/A,Snow,Light Snow,340,2013-02-19 07:17:00
2:37 AM,28.9,27.0,92,29.33,1.2,NNW,15.0,18.4,N/A,Snow,Snow,340,2013-02-19 07:37:00
2:56 AM,28.8,27.0,93,29.33,1.2,NNW,12.7,18.4,N/A,Snow,Light Snow,330,2013-02-19 07:56:00
3:17 AM,28.4,27.0,94,29.32,1.2,NNW,15.0,19.6,N/A,Snow,Light Snow,330,2013-02-19 08:17:00
3:37 AM,28.4,26.6,93,29.31,1.2,NNW,17.3,21.9,N/A,Snow,Light Snow,340,2013-02-19 08:37:00
3:56 AM,27.7,25.5,92,29.32,1.2,NW,20.7,27.6,N/A,Snow,Snow,320,2013-02-19 08:56:00
4:17 AM,24.8,23.0,93,29.32,1.5,NW,21.9,25.3,N/A,Snow,Light Snow,320,2013-02-19 09:17:00
4:36 AM,23.4,20.3,88,29.32,1.5,NW,21.9,31.1,N/A,Snow,Light Snow,320,2013-02-19 09:36:00
4:57 AM,22.3,18.9,87,29.32,1.5,NW,24.2,34.5,N/A,Snow,Light Snow,320,2013-02-19 09:57:00
5:16 AM,20.8,17.6,87,29.31,1.5,NW,23.0,31.1,N/A,Snow,Light Snow,310,2013-02-19 10:16:00
5:37 AM,19.9,16.5,87,29.32,1.2,NW,24.2,34.5,N/A,Snow,Light Snow,320,2013-02-19 10:37:00
5:57 AM,19.4,16.3,88,29.32,1.2,NW,21.9,28.8,N/A,Snow,Light Snow,320,2013-02-19 10:57:00
6:50 AM,19.4,14.0,80,29.33,2.5,NW,26.5,34.5,N/A,Snow,Light Snow,320,2013-02-19 11:50:00
7:55 AM,17.6,14.0,86,29.38,1.2,NW,19.6,31.1,N/A,Snow,Light Snow,320,2013-02-19 12:55:00
8:50 AM,17.6,14.0,86,29.41,0.8,NW,24.2,33.4,N/A,Snow,Light Snow,320,2013-02-19 13:50:00
9:50 AM,30.2,12.2,47,29.44,0.5,NW,23.0,35.7,N/A,Snow,Light Snow,320,2013-02-19 14:50:00
10:50 AM,15.8,10.4,79,29.48,0.5,NNW,29.9,42.6,N/A,Snow,Light Snow,330,2013-02-19 15:50:00
11:50 AM,15.8,10.4,79,29.52,1.2,NNW,29.9,35.7,N/A,Snow,Light Snow,330,2013-02-19 16:50:00
12:50 PM,14.0,6.8,73,29.56,1.0,NNW,25.3,41.4,N/A,Snow,Light Snow,330,2013-02-19 17:50:00
1:50 PM,12.2,6.8,79,29.58,1.0,NW,31.1,41.4,N/A,Snow,Light Snow,320,2013-02-19 18:50:00
2:50 PM,12.2,5.0,73,29.63,2.0,NW,27.6,38.0,N/A,Snow,Blowing Snow,320,2013-02-19 19:50:00
3:55 PM,12.2,5.0,73,29.70,1.5,NW,26.5,34.5,N/A,Snow,Blowing Snow,320,2013-02-19 20:55:00
4:50 PM,10.4,1.4,67,29.73,1.5,NNW,25.3,34.5,N/A,Snow,Light Snow,330,2013-02-19 21:50:00
5:50 PM,10.4,3.2,73,29.77,4.0,NNW,18.4,31.1,N/A,Snow,Light Snow,330,2013-02-19 22:50:00
7:55 PM,8.6,3.2,79,29.83,2.5,NNW,18.4,23.0,N/A,Snow,Light Snow,330,2013-02-20 00:55:00
8:05 PM,8.6,5.0,85,29.84,1.8,NNW,15.0,23.0,N/A,Snow,Light Snow,330,2013-02-20 01:05:00
8:50 PM,10.4,5.0,79,29.84,1.2,NNW,19.6,32.2,N/A,Snow,Light Snow,330,2013-02-20 01:50:00
9:30 PM,10.4,5.0,79,29.86,0.8,NNW,18.4,27.6,N/A,Snow,Snow,340,2013-02-20 02:30:00
9:50 PM,10.4,6.8,85,29.86,0.8,NNW,16.1,26.5,N/A,Snow,Snow,340,2013-02-20 02:50:00
10:17 PM,10.6,5.9,81,29.87,0.8,NNW,19.6,34.5,N/A,Snow,Snow,340,2013-02-20 03:17:00
10:36 PM,10.8,6.3,82,29.87,0.8,NNW,25.3,33.4,N/A,Snow,Snow,340,2013-02-20 03:36:00
10:57 PM,10.8,6.6,83,29.88,0.8,North,20.7,34.5,N/A,Snow,Light Snow,350,2013-02-20 03:57:00
11:17 PM,10.6,6.6,84,29.88,0.8,NNW,18.4,34.5,N/A,,Overcast,340,2013-02-20 04:17:00
11:36 PM,10.4,6.6,85,29.90,-9999.0,NNW,19.6,31.1,N/A,,Overcast,340,2013-02-20 04:36:00
11:57 PM,10.4,6.6,85,29.91,-9999.0,NNW,21.9,29.9,N/A,,Overcast,340,2013-02-20 04:57:00